Tacoma Narrows, WA
on Friday, February 8, 2013

Friday
Previous Day Next Day
Daily Summary
 ActualAverageRecord
Temperature
Mean Temperature °F °F  
Max Temperature 44°F 46°F 52°F (2002)
Min Temperature 35°F 36°F 30°F (2014)
Degree Days
Heating Degree Days 26    
Moisture
Dew Point 35°F   
Average Humidity 82    
Maximum Humidity 93    
Minimum Humidity 68    
Precipitation
Precipitation 0.01 in in in ()
Wind
Wind Speed 1 mph   
Max Wind Speed 5 mph   
Max Gust Speed mph   
Visibility 10 miles   
Events     
Averages and records for this station are not official NWS values.
Key: T is trace of precipitation, MM is missing value
Source: NWS Daily Summary
Seasonal Weather Averages
Time(PST)TemperatureDew PointHumidity Pressure Visibility Wind DirectionWind SpeedGust SpeedPrecipitationEvents Conditions
12:53 AM 39.9°F 36.0°F 86% 30.20 in 10.0 miles NNE 4.6 mph - N/A   Clear
1:53 AM 39.0°F 36.0°F 89% 30.22 in 10.0 miles Calm Calm - N/A   Scattered Clouds
2:03 AM 39.2°F 35.6°F 87% 30.21 in 10.0 miles Calm Calm - N/A   Mostly Cloudy
2:46 AM 39.2°F 35.6°F 87% 30.22 in 10.0 miles Calm Calm - N/A   Scattered Clouds
2:53 AM 39.0°F 35.1°F 86% 30.23 in 10.0 miles Calm Calm - N/A   Mostly Cloudy
3:53 AM 37.0°F 34.0°F 89% 30.23 in 10.0 miles West 3.5 mph - N/A   Mostly Cloudy
4:05 AM 35.6°F 33.8°F 93% 30.22 in 10.0 miles Calm Calm - N/A   Mostly Cloudy
4:22 AM 35.6°F 33.8°F 93% 30.23 in 10.0 miles Calm Calm - N/A   Overcast
4:33 AM 35.6°F 33.8°F 93% 30.23 in 10.0 miles Calm Calm - N/A   Mostly Cloudy
4:53 AM 37.0°F 34.0°F 89% 30.25 in 10.0 miles West 4.6 mph - N/A   Overcast
5:15 AM 37.4°F 35.6°F 93% 30.25 in 10.0 miles Calm Calm - N/A   Overcast
5:33 AM 37.4°F 35.6°F 93% 30.25 in 10.0 miles Calm Calm - N/A   Overcast
5:53 AM 39.0°F 35.1°F 86% 30.26 in 10.0 miles NE 3.5 mph - N/A   Mostly Cloudy
6:53 AM 39.0°F 35.1°F 86% 30.27 in 10.0 miles Calm Calm - N/A   Overcast
7:53 AM 39.0°F 34.0°F 82% 30.28 in 10.0 miles Calm Calm - N/A   Overcast
8:53 AM 39.9°F 35.1°F 83% 30.30 in 10.0 miles Calm Calm - N/A   Overcast
9:32 AM 39.2°F 35.6°F 87% 30.29 in 10.0 miles Calm Calm - N/A   Scattered Clouds
9:51 AM 42.8°F 35.6°F 76% 30.30 in 10.0 miles Variable 3.5 mph - N/A   Mostly Cloudy
9:53 AM 42.1°F 36.0°F 79% 30.31 in 10.0 miles Variable 3.5 mph - N/A   Mostly Cloudy
10:53 AM 42.1°F 35.1°F 76% 30.32 in 10.0 miles Calm Calm - N/A   Overcast
11:53 AM 43.0°F 35.1°F 74% 30.30 in 10.0 miles Calm Calm - N/A   Mostly Cloudy
12:53 PM 43.0°F 36.0°F 76% 30.30 in 10.0 miles Calm Calm - N/A   Overcast
1:53 PM 43.0°F 34.0°F 71% 30.29 in 10.0 miles Calm Calm - N/A   Overcast
2:30 PM 44.6°F 35.6°F 71% 30.28 in 10.0 miles Calm Calm - N/A   Overcast
2:37 PM 44.6°F 35.6°F 71% 30.28 in 10.0 miles Calm Calm - N/A   Overcast
2:53 PM 43.0°F 34.0°F 71% 30.29 in 10.0 miles Calm Calm - N/A   Overcast
3:53 PM 44.1°F 34.0°F 68% 30.30 in 10.0 miles Calm Calm - N/A   Overcast
4:53 PM 43.0°F 34.0°F 71% 30.29 in 10.0 miles Calm Calm - N/A   Overcast
5:53 PM 42.1°F 36.0°F 79% 30.29 in 10.0 miles WNW 4.6 mph - 0.01 in   Overcast
6:53 PM 41.0°F 36.0°F 82% 30.29 in 10.0 miles WNW 3.5 mph - N/A   Overcast
7:53 PM 41.0°F 36.0°F 82% 30.30 in 10.0 miles NW 3.5 mph - N/A   Overcast
8:53 PM 41.0°F 35.1°F 79% 30.30 in 10.0 miles Calm Calm - N/A   Overcast
9:53 PM 41.0°F 35.1°F 79% 30.30 in 10.0 miles Calm Calm - N/A   Overcast
10:53 PM 41.0°F 35.1°F 79% 30.29 in 10.0 miles Calm Calm - N/A   Overcast
11:53 PM 39.9°F 35.1°F 83% 30.28 in 10.0 miles Calm Calm - N/A   Overcast
Moon Phase
Feb. 08 Feb. 10 Feb. 17 Feb. 25 Mar. 04
Sunrise:07:25 AM (PST) Moon Rise:06:01 AM (PST)2/8
Sunset:05:23 PM (PST) Moon Set:04:02 PM (PST)2/8

Copyright © 2014 The Weather Underground, Inc.